Big Pine Key, Florida Weather Center

Moon Phase Calendar



Online Cameras

 


      

Current Conditions in Cudjoe Key
6/25/2022 3:07:08 PM

84°F
Feels Like 92
Clouds
Humidity
73%
Pressure
29.88"
Wind
5 mph (S)
Dew Point
75°F
UV Index
10/10 (Very High)
Visibility
6 mi

Hourly Forecast

Date & Time Sat, Jun 25
3:00 PM
Sat, Jun 25
4:00 PM
Sat, Jun 25
5:00 PM
Sat, Jun 25
6:00 PM
Sat, Jun 25
7:00 PM
Sat, Jun 25
8:00 PM
Sat, Jun 25
9:00 PM
Sat, Jun 25
10:00 PM
Sat, Jun 25
11:00 PM
Sun, Jun 26
12:00 AM
Sun, Jun 26
1:00 AM
Sun, Jun 26
2:00 AM
Sun, Jun 26
3:00 AM
Sun, Jun 26
4:00 AM
Sun, Jun 26
5:00 AM
Sun, Jun 26
6:00 AM
Sun, Jun 26
7:00 AM
Sun, Jun 26
8:00 AM
Sun, Jun 26
9:00 AM
Sun, Jun 26
10:00 AM
Sun, Jun 26
11:00 AM
Sun, Jun 26
12:00 PM
Sun, Jun 26
1:00 PM
Sun, Jun 26
2:00 PM
Sun, Jun 26
3:00 PM
Sun, Jun 26
4:00 PM
Sun, Jun 26
5:00 PM
Sun, Jun 26
6:00 PM
Sun, Jun 26
7:00 PM
Sun, Jun 26
8:00 PM
Sun, Jun 26
9:00 PM
Sun, Jun 26
10:00 PM
Sun, Jun 26
11:00 PM
Mon, Jun 27
12:00 AM
Mon, Jun 27
1:00 AM
Mon, Jun 27
2:00 AM
Mon, Jun 27
3:00 AM
Mon, Jun 27
4:00 AM
Mon, Jun 27
5:00 AM
Mon, Jun 27
6:00 AM
Mon, Jun 27
7:00 AM
Mon, Jun 27
8:00 AM
Mon, Jun 27
9:00 AM
Mon, Jun 27
10:00 AM
Mon, Jun 27
11:00 AM
Mon, Jun 27
12:00 PM
Mon, Jun 27
1:00 PM
Mon, Jun 27
2:00 PM
Condition
Clouds

Clouds

Clouds

Clouds

Clouds

Clouds

Clouds

Rain

Clouds

Rain

Rain

Rain

Rain

Clouds

Clouds

Rain

Clouds

Rain

Rain

Rain

Rain

Rain

Rain

Rain

Rain

Rain

Rain

Clouds

Clouds

Clouds

Clouds

Clouds

Clouds

Clouds

Clouds

Clouds

Clouds

Clouds

Clouds

Clouds

Clouds

Clouds

Clouds

Clouds

Clouds

Clouds

Clouds

Clouds
Temperature 84°F84°F84°F84°F84°F84°F84°F84°F84°F82°F82°F83°F83°F83°F82°F82°F83°F82°F83°F82°F82°F82°F83°F82°F81°F81°F81°F81°F82°F82°F82°F82°F82°F82°F82°F82°F82°F83°F83°F83°F83°F83°F83°F83°F83°F83°F83°F83°F
Feels Like 92°F91°F91°F91°F91°F90°F90°F90°F89°F86°F87°F89°F88°F88°F87°F87°F88°F88°F88°F86°F86°F87°F88°F87°F85°F86°F85°F86°F86°F87°F87°F87°F87°F87°F87°F87°F87°F87°F87°F88°F88°F88°F88°F89°F89°F89°F89°F89°F
Cloudiness 100%100%100%100%96%95%75%84%89%87%88%90%100%100%100%100%100%100%100%100%100%100%100%100%100%100%100%96%85%78%46%58%72%75%73%75%67%83%89%91%86%88%93%92%95%90%79%69%
Visibility 6 mi6 mi6 mi6 mi6 mi6 mi6 mi6 mi6 mi6 mi6 mi6 mi6 mi6 mi6 mi6 mi6 mi6 mi6 mi6 mi6 mi6 mi6 mi6 mi6 mi6 mi6 mi6 mi6 mi6 mi6 mi6 mi6 mi6 mi6 mi6 mi6 mi6 mi6 mi6 mi6 mi6 mi6 mi6 mi6 mi6 mi6 mi6 mi
Precipitation 19%19%19%22%29%29%26%37%40%51%67%67%50%43%44%28%43%43%41%64%76%72%70%77%70%66%66%65%49%52%21%24%24%32%25%17%0%0%3%7%32%32%25%17%13%13%13%6%
Humidity 73%71%70%69%68%67%68%69%69%72%73%71%69%70%71%71%71%71%71%72%72%70%70%72%75%73%74%73%72%72%70%69%69%69%70%70%70%68%66%67%69%70%70%70%69%69%69%68%
Dew Point 75°F74°F73°F73°F73°F72°F72°F73°F72°F72°F72°F73°F72°F72°F72°F72°F72°F72°F72°F72°F72°F71°F72°F72°F72°F72°F72°F72°F72°F72°F72°F71°F71°F71°F72°F72°F72°F71°F71°F71°F72°F72°F73°F72°F72°F72°F72°F72°F
Pressure 29.88"29.91"29.91"29.94"29.94"29.97"29.97"30"30"30"30"30"29.97"29.97"29.97"29.97"29.97"29.97"30"30"30.03"30.03"30"30"30"30"29.97"29.97"29.97"29.97"30"30"30.03"30"29.97"29.97"29.97"29.97"29.97"29.97"29.97"30"30.03"30.03"30.03"30.03"30.03"30"
Wind Speed 4.4 mph5.3 mph5.5 mph5.7 mph5.1 mph5.5 mph5.7 mph5.1 mph3.2 mph0.7 mph3.6 mph6.6 mph5.2 mph5.2 mph5.1 mph5.7 mph6.8 mph5.4 mph5.7 mph3.9 mph3.6 mph4 mph7.4 mph8.8 mph8.5 mph8.7 mph6.8 mph5.9 mph5.6 mph6.6 mph3.9 mph1.2 mph1.5 mph2.8 mph5.5 mph5.5 mph5.9 mph6.1 mph6.6 mph7.2 mph7.5 mph7.7 mph8.1 mph7.8 mph6.5 mph5.4 mph5.3 mph4.6 mph
Wind
Direction
332°
NNW
331°
NNW
317°
NW
299°
WNW
303°
WNW
356°
N
34°
NE
48°
NE
88°
E
37°
NE
336°
NNW

N
28°
NNE
66°
ENE
89°
E
137°
SE
164°
SSE
152°
SSE
161°
SSE
142°
SE
140°
SE
167°
SSE
208°
SSW
223°
SW
234°
SW
242°
WSW
251°
WSW
260°
W
268°
W
251°
WSW
282°
WNW
307°
NW
58°
ENE
106°
ESE
119°
ESE
129°
SE
137°
SE
135°
SE
133°
SE
135°
SE
140°
SE
137°
SE
136°
SE
139°
SE
147°
SSE
148°
SSE
145°
SE
145°
SE

Daily Forecast

Date High Low Precip. Humidity
Today
Jun 25

Rain
84 °F
83 °F
40%
70%
Sunday
Jun 26

Rain
83 °F
81 °F
77%
70%
Monday
Jun 27

Rain
84 °F
82 °F
66%
68%
Tuesday
Jun 28

Rain
85 °F
83 °F
63%
72%
Wednesday
Jun 29

Rain
85 °F
84 °F
60%
71%
Thursday
Jun 30

Rain
85 °F
84 °F
72%
71%
Friday
Jul 1

Rain
85 °F
84 °F
61%
68%
Saturday
Jul 2

Rain
85 °F
84 °F
95%
73%
Sunday
Jul 3

Rain
85 °F
84 °F
100%
74%
Monday
Jul 4

Rain
85 °F
84 °F
100%
72%
Tuesday
Jul 5

Rain
84 °F
84 °F
100%
75%
Wednesday
Jul 6

Rain
84 °F
84 °F
100%
73%
Thursday
Jul 7

Rain
84 °F
83 °F
100%
74%
Friday
Jul 8

Rain
85 °F
83 °F
90%
69%
Saturday
Jul 9

Rain
85 °F
84 °F
40%
71%
Sunday
Jul 10

Rain
85 °F
83 °F
45%
66%

Temperature 8-14 Day Outlook



Precipitation 8-14 Day Outlook




Quick Links
Big Pine Key, Florida News
Big Pine Key, Florida Photos
Big Pine Key, Florida Videos




About Us
Contact Us
Site Map
Search Site
Advertise With Us
   
BigPineKey.CoastalTown.com
THE BIG PINE KEY, FLORIDA WEBSITE

Copyright 2022, Coastal Town
Privacy    |    Legal